AEROCUBE 7C (43043 NORAD) Tracking and Keplerian Element Data

This shows tracking and keplerian element data for the satellite.

Feedback or suggestion? Click here.




ElementValue
Catalog43043
NameAEROCUBE 7C
Epoch Orbit6311
Epoch Day20.90297511
Epoch Year2019
RAAN59.8183
Inclination51.6394
Eccentricity0.0004834
Argument of Perigee343.9729
Mean Anonmoly16.1102
Mean Motion15.4019616
Decay Rate2.362E-05
L11 43043U 17071G 19020.90297511 .00002362 00000-0 67785-4 0 9996
L22 43043 51.6394 59.8183 0004834 343.9729 16.1102 15.40196160 63119

Live tracking and technical data element details for AEROCUBE 7C (NORAD 43043). AEROCUBE 7C can be tracked NOW for your location showing map with azimuth and elevation plus other details from your city location.

Track the satellite on the map from your city or location and see movement details for azimuth, elevation, latitude, longitude, range, height, and movement on the map or in text.







IsCatalogInMostPopularTable: catalog: 43043, numindb: 177
Update: records affected: 1



GetName: 43043 AEROCUBE 7C

Hit Count: updated at: Tue, 22 Jan 2019 10:50:49 GMT